User: anonymous   Login
Location: Columbia
(38.9520°N, 92.3340°W)
Time: 23:06:18
(UTC-05:00)
Language:

Iridium 52 - Orbit

View from above orbital plane
View from above orbital plane
View from above satellite
View from above satellite

Ground track
Ground track

The orbit data is extracted from the following two-line orbital elements,

1 25169U 98010A   15148.50492365  .00000083  00000-0  22668-4 0  9993
2 25169 086.3943 304.1323 0002251 093.0920 329.7311 14.34217909904185
Epoch (UTC): 28 May 2015 12:07:05
Eccentricity: 0.0002251
inclination: 86.3943°
perigee height: 776 km
apogee height: 779 km
right ascension of ascending node: 304.1323°
argument of perigee: 93.0920°
revolutions per day: 14.34217909
mean anomaly at epoch: 329.7311°
orbit number at epoch: 90418

The dashed part of the orbit path shows where the satellite is in the earth's shadow,  

DLR